When you browse on this site, cookies collect data to enhance your experience and personalize the content and advertising you see.
Visit our Privacy Policy to learn more. By continuing to use the site, you agree to this use of cookies and data.
  • In France
  • List of Countries
  • For 7 days
  • Water Temperature
  • Weather Map
  • Weather Widgets
  • user-avatar
    Login

    Hourly Weather Angahuan

    Today, 21 September, Saturday

    Time Temperature Precipitation Wind Pressure Humidity
    00:00 +8°C° 0 mm 1 mps 546 mmHg 87%
    01:00 +8°C° 0 mm 1 mps 545 mmHg 83%
    02:00 +7°C° 0 mm 1 mps 545 mmHg 80%
    03:00 +7°C° 0 mm 1 mps 545 mmHg 78%
    04:00 +7°C° 0 mm 1 mps 545 mmHg 77%
    05:00 +7°C° 0 mm 1 mps 545 mmHg 75%
    06:00 +10°C° 0 mm 1 mps 547 mmHg 69%
    07:00 +12°C° 0 mm 1 mps 549 mmHg 63%
    08:00 +15°C° 0 mm 1 mps 550 mmHg 57%
    09:00 +18°C° 0 mm 1 mps 551 mmHg 55%
    10:00 +19°C° 0 mm 1 mps 551 mmHg 52%
    11:00 +21°C° 0 mm 1 mps 552 mmHg 49%
    12:00 +20°C° 0.1 mm 1 mps 551 mmHg 55%
    13:00 +19°C° 0.1 mm 1 mps 550 mmHg 61%
    14:00 +18°C° 0.1 mm 2 mps 549 mmHg 67%
    15:00 +16°C° 0.7 mm 1 mps 548 mmHg 75%
    16:00 +15°C° 0.7 mm 1 mps 547 mmHg 84%
    17:00 +14°C° 0.7 mm 1 mps 546 mmHg 92%
    18:00 +13°C° 0.3 mm 1 mps 546 mmHg 92%
    19:00 +12°C° 0.3 mm 1 mps 546 mmHg 93%
    20:00 +11°C° 0.3 mm 1 mps 546 mmHg 93%
    21:00 +10°C° 0.1 mm 1 mps 547 mmHg 92%
    22:00 +10°C° 0.1 mm 1 mps 547 mmHg 91%
    23:00 +10°C° 0.1 mm 1 mps 547 mmHg 90%

    Tomorrow, 22 September, Sunday

    Time Temperature Precipitation Wind Pressure Humidity
    00:00 +10°C° 0.1 mm 1 mps 546 mmHg 90%
    01:00 +10°C° 0.1 mm 1 mps 546 mmHg 90%
    02:00 +9°C° 0.1 mm 1 mps 546 mmHg 90%
    03:00 +9°C° 0 mm 1 mps 546 mmHg 90%
    04:00 +9°C° 0 mm 1 mps 546 mmHg 89%
    05:00 +9°C° 0 mm 1 mps 546 mmHg 89%
    06:00 +11°C° 0 mm 1 mps 547 mmHg 85%
    07:00 +12°C° 0 mm 0 mps 549 mmHg 81%
    08:00 +14°C° 0 mm 0 mps 550 mmHg 77%
    09:00 +16°C° 0.2 mm 1 mps 551 mmHg 73%
    10:00 +18°C° 0.2 mm 1 mps 551 mmHg 70%
    11:00 +18°C° 0.2 mm 2 mps 551 mmHg 66%
    12:00 +19°C° 1 mm 1 mps 550 mmHg 70%
    13:00 +19°C° 1 mm 1 mps 549 mmHg 74%
    14:00 +18°C° 1 mm 1 mps 549 mmHg 78%
    15:00 +16°C° 0.7 mm 1 mps 548 mmHg 82%
    16:00 +15°C° 0.7 mm 1 mps 548 mmHg 87%
    17:00 +15°C° 0.7 mm 1 mps 547 mmHg 91%
    18:00 +13°C° 0.6 mm 1 mps 547 mmHg 92%
    19:00 +12°C° 0.6 mm 1 mps 547 mmHg 92%
    20:00 +11°C° 0.6 mm 1 mps 546 mmHg 93%
    21:00 +11°C° 0.6 mm 1 mps 547 mmHg 93%
    22:00 +10°C° 0.6 mm 1 mps 547 mmHg 92%
    23:00 +10°C° 0.6 mm 1 mps 547 mmHg 92%

    Day after tomorrow, 23 September, Monday

    Time Temperature Precipitation Wind Pressure Humidity
    00:00 +10°C° 0.5 mm 1 mps 547 mmHg 92%
    01:00 +10°C° 0.5 mm 1 mps 546 mmHg 93%
    02:00 +10°C° 0.5 mm 1 mps 546 mmHg 93%
    03:00 +9°C° 0.3 mm 1 mps 546 mmHg 93%
    04:00 +9°C° 0.3 mm 1 mps 546 mmHg 93%
    05:00 +9°C° 0.3 mm 1 mps 546 mmHg 94%
    06:00 +11°C° 0 mm 1 mps 547 mmHg 90%
    07:00 +13°C° 0 mm 1 mps 549 mmHg 87%
    08:00 +14°C° 0 mm 1 mps 550 mmHg 83%
    09:00 +16°C° 0.3 mm 1 mps 550 mmHg 76%
    10:00 +18°C° 0.3 mm 1 mps 551 mmHg 69%
    11:00 +20°C° 0.3 mm 1 mps 551 mmHg 63%
    12:00 +19°C° 0.5 mm 1 mps 550 mmHg 66%
    13:00 +19°C° 0.5 mm 1 mps 550 mmHg 69%
    14:00 +17°C° 0.5 mm 2 mps 549 mmHg 72%
    15:00 +18°C° 0.6 mm 1 mps 548 mmHg 77%
    16:00 +16°C° 0.6 mm 1 mps 548 mmHg 82%
    17:00 +15°C° 0.6 mm 1 mps 547 mmHg 87%
    18:00 +13°C° 0.4 mm 1 mps 547 mmHg 88%
    19:00 +12°C° 0.4 mm 1 mps 546 mmHg 90%
    20:00 +10°C° 0.4 mm 0 mps 546 mmHg 92%
    21:00 +10°C° 0.1 mm 1 mps 546 mmHg 91%
    22:00 +10°C° 0.1 mm 1 mps 546 mmHg 91%
    23:00 +10°C° 0.1 mm 1 mps 546 mmHg 91%

    24 September, Tuesday

    Time Temperature Precipitation Wind Pressure Humidity
    00:00 +9°C° 0.2 mm 1 mps 546 mmHg 91%
    01:00 +9°C° 0.2 mm 1 mps 546 mmHg 91%
    02:00 +9°C° 0.2 mm 1 mps 545 mmHg 91%
    03:00 +9°C° 0.1 mm 1 mps 545 mmHg 91%
    04:00 +9°C° 0.1 mm 1 mps 545 mmHg 91%
    05:00 +8°C° 0.1 mm 1 mps 545 mmHg 91%
    06:00 +11°C° 0 mm 1 mps 547 mmHg 86%
    07:00 +12°C° 0 mm 0 mps 548 mmHg 81%
    08:00 +14°C° 0 mm 0 mps 550 mmHg 77%
    09:00 +16°C° 0.2 mm 1 mps 550 mmHg 73%
    10:00 +18°C° 0.2 mm 1 mps 550 mmHg 70%
    11:00 +18°C° 0.2 mm 2 mps 550 mmHg 66%
    12:00 +18°C° 1 mm 1 mps 550 mmHg 72%
    13:00 +18°C° 1 mm 1 mps 549 mmHg 77%
    14:00 +16°C° 1 mm 1 mps 548 mmHg 83%
    15:00 +15°C° 0.9 mm 1 mps 547 mmHg 86%
    16:00 +15°C° 0.9 mm 1 mps 547 mmHg 89%
    17:00 +14°C° 0.9 mm 1 mps 546 mmHg 92%
    18:00 +13°C° 0.6 mm 1 mps 546 mmHg 93%
    19:00 +12°C° 0.6 mm 1 mps 546 mmHg 94%
    20:00 +10°C° 0.6 mm 1 mps 546 mmHg 94%
    21:00 +10°C° 0.4 mm 1 mps 546 mmHg 95%
    22:00 +10°C° 0.4 mm 1 mps 546 mmHg 95%
    23:00 +10°C° 0.4 mm 1 mps 546 mmHg 95%

    25 September, Wednesday

    Time Temperature Precipitation Wind Pressure Humidity
    00:00 +9°C° 0.5 mm 1 mps 546 mmHg 95%
    01:00 +8°C° 0.5 mm 0 mps 545 mmHg 95%
    02:00 +8°C° 0.5 mm 0 mps 545 mmHg 94%
    03:00 +8°C° 0.2 mm 0 mps 545 mmHg 95%
    04:00 +8°C° 0.2 mm 0 mps 545 mmHg 95%
    05:00 +8°C° 0.2 mm 0 mps 545 mmHg 95%
    06:00 +9°C° 0 mm 0 mps 546 mmHg 92%
    07:00 +11°C° 0 mm 0 mps 548 mmHg 89%
    08:00 +13°C° 0 mm 1 mps 549 mmHg 87%
    09:00 +14°C° 0.8 mm 1 mps 549 mmHg 86%
    10:00 +15°C° 0.8 mm 1 mps 549 mmHg 86%
    11:00 +15°C° 0.8 mm 1 mps 549 mmHg 86%
    12:00 +15°C° 1.4 mm 1 mps 548 mmHg 86%
    13:00 +15°C° 1.4 mm 1 mps 547 mmHg 87%
    14:00 +15°C° 1.4 mm 1 mps 547 mmHg 88%
    15:00 +14°C° 0.8 mm 1 mps 547 mmHg 90%
    16:00 +14°C° 0.8 mm 1 mps 546 mmHg 92%
    17:00 +13°C° 0.8 mm 1 mps 546 mmHg 94%
    18:00 +12°C° 0.3 mm 1 mps 546 mmHg 95%
    19:00 +11°C° 0.3 mm 1 mps 546 mmHg 96%
    20:00 +10°C° 0.3 mm 1 mps 546 mmHg 96%
    21:00 +9°C° 0.1 mm 0 mps 546 mmHg 95%
    22:00 +9°C° 0.1 mm 0 mps 546 mmHg 95%
    23:00 +8°C° 0.1 mm 0 mps 546 mmHg 94%

    26 September, Thursday

    Time Temperature Precipitation Wind Pressure Humidity
    00:00 +8°C° 0.3 mm 0 mps 546 mmHg 94%
    01:00 +8°C° 0.3 mm 0 mps 546 mmHg 94%
    02:00 +8°C° 0.3 mm 0 mps 545 mmHg 93%
    03:00 +8°C° 0 mm 0 mps 545 mmHg 93%
    04:00 +9°C° 0 mm 1 mps 545 mmHg 93%
    05:00 +9°C° 0 mm 1 mps 545 mmHg 92%
    06:00 +11°C° 0 mm 1 mps 546 mmHg 89%
    07:00 +12°C° 0 mm 1 mps 547 mmHg 85%
    08:00 +13°C° 0 mm 0 mps 549 mmHg 81%
    09:00 +15°C° 0.3 mm 1 mps 549 mmHg 78%
    10:00 +18°C° 0.3 mm 1 mps 549 mmHg 74%
    11:00 +19°C° 0.3 mm 1 mps 550 mmHg 70%
    12:00 +19°C° 1.9 mm 1 mps 549 mmHg 75%
    13:00 +18°C° 1.9 mm 1 mps 548 mmHg 80%
    14:00 +18°C° 1.9 mm 1 mps 547 mmHg 85%
    15:00 +16°C° 1.4 mm 1 mps 546 mmHg 87%
    16:00 +14°C° 1.4 mm 0 mps 546 mmHg 90%
    17:00 +14°C° 1.4 mm 0 mps 546 mmHg 93%
    18:00 +13°C° 1.6 mm 0 mps 546 mmHg 93%
    19:00 +11°C° 1.6 mm 0 mps 545 mmHg 94%
    20:00 +10°C° 1.6 mm 0 mps 545 mmHg 94%
    21:00 +10°C° 0.9 mm 0 mps 545 mmHg 94%
    22:00 +11°C° 0.9 mm 1 mps 545 mmHg 94%
    23:00 +10°C° 0.9 mm 1 mps 545 mmHg 94%
    Show more